Location: Les Jeannots
(43.2262°N, 5.5774°E)
Time: 08:43:51
(UTC+00:00)

Cosmos 1371 Rocket - Pass Details

Date: 05 July 2020
Orbit: 753 x 790 km, 74.0° (Epoch: 05 August)

Event Time Altitude Azimuth Distance (km) Brightness Sun altitude
Rises 22:35:27 0° 340° (NNW) 3,245 8.8 -22.3°
Reaches altitude 10° 22:37:49 10° 341° (NNW) 2,320 7.6 -22.4°
Maximum altitude 22:43:06 82° 70° (ENE) 789 4.0 -22.7°
Enters shadow 22:44:16 56° 147° (SSE) 924 4.0 -22.8°
